TimeMST,TemperatureF,Dew PointF,Humidity,Sea Level PressureIn,VisibilityMPH,Wind Direction,Wind SpeedMPH,Gust SpeedMPH,PrecipitationIn,Events,Conditions,WindDirDegrees,DateUTC
12:56 AM,21.9,12.0,66,29.90,-9999.0,West,12.7,-,N/A,,Unknown,280,2013-02-12 07:56:00
1:56 AM,21.9,12.9,68,29.90,-9999.0,West,11.5,-,N/A,,Unknown,260,2013-02-12 08:56:00
2:56 AM,24.1,14.0,65,29.89,-9999.0,West,8.1,-,N/A,,Unknown,280,2013-02-12 09:56:00
3:56 AM,24.1,15.1,69,29.89,-9999.0,West,15.0,-,N/A,,Unknown,280,2013-02-12 10:56:00
4:56 AM,23.0,15.1,72,29.91,-9999.0,West,16.1,-,N/A,,Unknown,280,2013-02-12 11:56:00
5:56 AM,19.9,14.0,78,29.95,-9999.0,West,10.4,-,N/A,,Unknown,270,2013-02-12 12:56:00
6:56 AM,21.0,15.1,78,29.98,-9999.0,West,9.2,-,N/A,,Unknown,260,2013-02-12 13:56:00
7:56 AM,24.1,17.1,75,29.97,-9999.0,WSW,10.4,-,N/A,,Unknown,250,2013-02-12 14:56:00
8:56 AM,30.9,19.9,64,29.96,-9999.0,West,10.4,-,N/A,,Unknown,260,2013-02-12 15:56:00
9:56 AM,37.0,19.0,48,29.95,-9999.0,West,24.2,-,N/A,,Unknown,280,2013-02-12 16:56:00
10:56 AM,39.0,19.0,45,29.96,-9999.0,WNW,24.2,31.1,N/A,,Unknown,290,2013-02-12 17:56:00
11:56 AM,39.0,19.9,46,29.95,-9999.0,WNW,23.0,-,N/A,,Unknown,300,2013-02-12 18:56:00
12:56 PM,39.0,19.9,46,29.93,-9999.0,WNW,17.3,-,N/A,,Unknown,290,2013-02-12 19:56:00
1:56 PM,42.1,21.0,43,29.93,-9999.0,WNW,24.2,-,N/A,,Unknown,290,2013-02-12 20:56:00
2:56 PM,42.1,21.0,43,29.92,-9999.0,WNW,23.0,28.8,N/A,,Unknown,290,2013-02-12 21:56:00
3:56 PM,42.1,19.9,41,29.90,-9999.0,West,21.9,-,N/A,,Unknown,280,2013-02-12 22:56:00
4:56 PM,39.0,19.0,45,29.91,-9999.0,West,12.7,-,N/A,,Unknown,280,2013-02-12 23:56:00
5:56 PM,34.0,19.0,54,29.93,-9999.0,West,9.2,-,N/A,,Unknown,270,2013-02-13 00:56:00
6:56 PM,30.9,19.0,61,29.93,-9999.0,West,9.2,-,N/A,,Unknown,260,2013-02-13 01:56:00
7:56 PM,28.0,19.0,69,29.92,-9999.0,West,10.4,-,N/A,,Unknown,270,2013-02-13 02:56:00
8:56 PM,32.0,21.0,64,29.87,-9999.0,West,5.8,-,N/A,,Unknown,280,2013-02-13 03:56:00
9:56 PM,33.1,21.9,64,29.84,-9999.0,WSW,6.9,-,N/A,,Unknown,250,2013-02-13 04:56:00
10:56 PM,32.0,21.9,66,29.83,-9999.0,West,9.2,-,N/A,,Unknown,260,2013-02-13 05:56:00
11:56 PM,28.9,21.0,72,29.83,-9999.0,WSW,9.2,-,N/A,,Unknown,240,2013-02-13 06:56:00